2021/09/20 23:38:51+0000,-42.73,-48.72,-32.78,-50.66,-50.70,-51.71
2021/09/20 23:39:43+0000,-42.19,-49.59,-32.83,-50.19,-50.77,-51.28
2021/09/20 23:40:35+0000,-41.94,-47.77,-32.68,-50.37,-12.33,-51.24
2021/09/20 23:41:35+0000,-41.67,-48.74,-33.42,-50.85,-12.47,-51.60
2021/09/20 23:42:27+0000,-41.77,-46.85,-32.86,-49.06,-50.68,-51.70
2021/09/20 23:43:19+0000,-41.43,-48.37,-32.92,-51.29,-50.12,-51.36
2021/09/20 23:44:11+0000,-41.34,-47.03,-32.92,-49.50,-50.75,-52.06
2021/09/20 23:45:03+0000,-41.96,-46.46,-33.11,-48.34,-51.49,-51.65
2021/09/20 23:45:55+0000,-41.46,-48.19,-32.84,-48.54,-51.30,-51.72
2021/09/20 23:46:47+0000,-41.59,-47.25,-33.45,-49.90,-51.13,-51.82
2021/09/20 23:47:39+0000,-40.77,-47.66,-32.95,-49.17,-26.08,-51.91
2021/09/20 23:48:31+0000,-41.05,-47.45,-33.06,-49.71,-12.69,-51.72
2021/09/20 23:49:23+0000,-41.39,-47.95,-33.40,-48.16,-51.10,-50.97
2021/09/20 23:50:15+0000,-41.12,-47.50,-33.41,-49.78,-50.90,-51.21
2021/09/20 23:51:15+0000,-41.84,-47.35,-33.34,-48.66,-50.95,-51.61
2021/09/20 23:52:07+0000,-41.04,-47.82,-33.79,-50.15,-13.26,-51.42
2021/09/20 23:52:59+0000,-41.69,-47.90,-33.35,-49.60,-12.89,-51.67
2021/09/20 23:53:51+0000,-41.77,-47.67,-32.69,-50.45,-51.11,-51.12
2021/09/20 23:54:43+0000,-41.64,-45.86,-32.75,-49.86,-51.50,-51.55
2021/09/20 23:55:35+0000,-42.02,-47.37,-32.84,-49.93,-13.26,-51.81
2021/09/20 23:56:27+0000,-41.47,-46.94,-33.14,-49.41,-51.47,-52.10
2021/09/20 23:57:19+0000,-42.27,-46.80,-32.89,-50.34,-50.70,-51.35
2021/09/20 23:58:11+0000,-41.68,-47.72,-32.72,-49.88,-51.81,-50.95
2021/09/20 23:59:03+0000,-41.79,-47.94,-32.54,-48.79,-50.63,-51.75
2021/09/20 23:59:56+0000,-41.83,-48.03,-32.10,-47.98,-51.24,-52.17
2021/09/21 00:00:50+0000,-41.55,-47.26,-32.79,-50.36,-50.46,-51.44
2021/09/21 00:01:53+0000,-40.98,-47.27,-32.76,-49.15,-50.95,-51.65
2021/09/21 00:02:45+0000,-40.89,-47.49,-32.64,-49.08,-51.01,-51.33
2021/09/21 00:03:37+0000,-41.78,-47.68,-32.48,-49.25,-51.59,-51.76
2021/09/21 00:04:29+0000,-42.24,-46.45,-32.28,-49.78,-12.44,-51.55
2021/09/21 00:05:21+0000,-41.59,-48.25,-33.31,-49.38,-50.92,-51.89
2021/09/21 00:06:13+0000,-41.84,-47.74,-33.13,-49.14,-51.02,-51.49
2021/09/21 00:07:05+0000,-42.10,-47.84,-32.78,-49.62,-51.11,-51.50
2021/09/21 00:07:57+0000,-41.04,-46.92,-32.78,-49.19,-51.30,-51.30
2021/09/21 00:08:49+0000,-41.32,-46.51,-32.31,-50.44,-51.13,-51.24
2021/09/21 00:09:41+0000,-41.54,-47.81,-32.94,-48.96,-50.90,-51.27
2021/09/21 00:10:33+0000,-42.45,-46.99,-32.42,-50.61,-51.11,-51.88
2021/09/21 00:11:33+0000,-41.40,-47.40,-31.79,-50.57,-51.05,-51.45
2021/09/21 00:12:25+0000,-42.46,-47.48,-33.10,-49.09,-51.40,-51.51
2021/09/21 00:13:17+0000,-41.90,-47.02,-32.83,-48.97,-50.45,-51.82
2021/09/21 00:14:09+0000,-41.82,-48.44,-33.03,-48.80,-51.29,-51.09
2021/09/21 00:15:01+0000,-41.80,-46.82,-32.66,-47.86,-50.85,-51.50
2021/09/21 00:15:53+0000,-41.91,-46.92,-32.63,-46.94,-50.81,-51.73
2021/09/21 00:16:45+0000,-42.15,-46.80,-32.57,-49.20,-51.26,-51.10
2021/09/21 00:17:37+0000,-41.33,-49.06,-32.30,-49.73,-50.74,-51.44
2021/09/21 00:18:29+0000,-42.09,-48.77,-32.73,-49.18,-50.13,-51.51
2021/09/21 00:19:21+0000,-41.89,-49.10,-32.57,-49.56,-51.14,-51.41
2021/09/21 00:20:13+0000,-41.44,-49.16,-32.64,-49.73,-50.63,-51.82
2021/09/21 00:21:15+0000,-41.79,-49.02,-32.50,-49.36,-51.03,-51.38
2021/09/21 00:22:07+0000,-41.52,-48.42,-32.59,-48.98,-50.18,-51.02
2021/09/21 00:22:59+0000,-41.35,-48.08,-33.41,-49.18,-51.00,-51.42
2021/09/21 00:23:51+0000,-41.31,-49.24,-32.81,-48.54,-50.33,-51.65
2021/09/21 00:24:43+0000,-41.07,-48.34,-32.66,-46.94,-50.75,-51.33
2021/09/21 00:25:36+0000,-42.40,-49.77,-32.41,-47.22,-50.21,-50.90
2021/09/21 00:26:28+0000,-41.69,-48.42,-32.59,-48.52,-50.25,-51.44
2021/09/21 00:27:20+0000,-41.35,-48.91,-32.87,-49.99,-50.79,-51.23
2021/09/21 00:28:12+0000,-41.63,-48.79,-33.04,-48.88,-50.87,-50.85
2021/09/21 00:29:04+0000,-42.67,-49.11,-33.22,-50.23,-49.97,-51.47
2021/09/21 00:29:56+0000,-42.19,-48.70,-32.97,-48.63,-50.35,-50.99
2021/09/21 00:30:48+0000,-42.01,-48.26,-33.25,-50.35,-50.29,-51.22
2021/09/21 00:31:48+0000,-41.54,-47.83,-32.80,-49.87,-50.04,-50.77
2021/09/21 00:32:40+0000,-42.31,-47.78,-32.49,-49.44,-50.36,-50.06
2021/09/21 00:33:32+0000,-41.79,-48.96,-32.00,-47.24,-50.42,-50.18
2021/09/21 00:34:24+0000,-42.00,-48.85,-32.67,-45.51,-50.98,-50.85
2021/09/21 00:35:16+0000,-42.58,-47.03,-33.11,-49.57,-50.68,-51.21
2021/09/21 00:36:08+0000,-42.57,-48.13,-33.08,-49.19,-50.93,-50.63
2021/09/21 00:37:00+0000,-42.41,-48.28,-33.06,-46.10,-50.60,-51.07
2021/09/21 00:37:52+0000,-42.42,-48.96,-32.82,-48.28,-50.08,-51.47
2021/09/21 00:38:44+0000,-41.62,-49.16,-33.27,-44.82,-50.54,-50.97
2021/09/21 00:39:36+0000,-42.25,-49.39,-33.32,-45.07,-50.10,-51.50
2021/09/21 00:40:28+0000,-42.40,-48.79,-32.78,-47.54,-50.72,-50.96
2021/09/21 00:41:30+0000,-43.14,-49.39,-32.64,-47.98,-50.21,-51.18
2021/09/21 00:42:22+0000,-42.29,-49.17,-32.81,-48.26,-50.67,-51.01
2021/09/21 00:43:14+0000,-42.02,-48.96,-32.74,-49.49,-50.21,-51.18
2021/09/21 00:44:06+0000,-40.64,-49.80,-32.42,-49.35,-50.39,-50.35
2021/09/21 00:44:58+0000,-41.17,-49.00,-32.83,-48.94,-50.22,-51.08
2021/09/21 00:45:50+0000,-41.26,-48.20,-32.55,-50.33,-50.66,-51.04
2021/09/21 00:46:43+0000,-40.55,-47.60,-33.45,-49.34,-50.48,-50.67
2021/09/21 00:47:35+0000,-41.08,-48.42,-32.09,-50.04,-50.36,-51.17
2021/09/21 00:48:27+0000,-40.63,-48.39,-33.28,-48.60,-50.30,-50.91
2021/09/21 00:49:19+0000,-39.37,-47.68,-33.04,-50.45,-50.22,-51.44
2021/09/21 00:50:11+0000,-39.66,-47.32,-33.00,-48.44,-50.36,-51.18
2021/09/21 00:51:11+0000,-38.88,-47.83,-33.05,-47.56,-50.18,-50.79
2021/09/21 00:52:03+0000,-38.74,-48.57,-32.91,-49.37,-50.34,-50.70
2021/09/21 00:52:55+0000,-40.52,-48.12,-32.54,-48.97,-50.38,-51.11
2021/09/21 00:53:47+0000,-40.51,-47.59,-32.62,-49.99,-50.22,-50.97
2021/09/21 00:54:39+0000,-40.00,-46.65,-32.57,-48.49,-50.34,-51.32
2021/09/21 00:55:31+0000,-40.37,-49.02,-32.71,-48.39,-50.54,-50.99
2021/09/21 00:56:23+0000,-39.91,-48.94,-32.98,-47.97,-49.22,-51.43
2021/09/21 00:57:15+0000,-40.44,-47.58,-33.06,-48.07,-50.72,-51.32
2021/09/21 00:58:08+0000,-40.28,-49.27,-32.87,-49.38,-50.79,-52.05
2021/09/21 00:59:00+0000,-40.15,-47.94,-33.26,-48.64,-50.49,-51.90
2021/09/21 00:59:52+0000,-40.32,-48.65,-33.00,-49.39,-50.45,-51.40
2021/09/21 01:00:44+0000,-40.50,-47.20,-32.96,-47.86,-49.85,-50.90
2021/09/21 01:01:47+0000,-40.70,-47.32,-32.49,-48.24,-49.97,-51.46
2021/09/21 01:02:39+0000,-41.32,-48.12,-32.84,-48.96,-51.10,-51.17
2021/09/21 01:03:31+0000,-41.22,-47.91,-32.46,-48.44,-50.64,-51.61
2021/09/21 01:04:23+0000,-39.49,-47.98,-33.28,-47.93,-50.72,-51.01
2021/09/21 01:05:15+0000,-39.57,-46.21,-33.12,-48.82,-50.95,-50.65
2021/09/21 01:06:07+0000,-40.68,-48.35,-31.88,-48.19,-50.48,-51.59
2021/09/21 01:06:59+0000,-39.98,-48.18,-33.04,-47.31,-50.23,-51.26
2021/09/21 01:07:51+0000,-40.50,-48.93,-32.82,-46.60,-50.58,-51.58
2021/09/21 01:08:43+0000,-41.00,-47.09,-33.08,-48.11,-50.62,-51.24
2021/09/21 01:09:35+0000,-42.03,-48.89,-32.98,-48.60,-50.19,-50.99
2021/09/21 01:10:27+0000,-41.56,-47.45,-33.14,-47.25,-50.59,-51.71
2021/09/21 01:11:28+0000,-41.67,-48.30,-33.04,-47.51,-50.55,-51.06
2021/09/21 01:12:20+0000,-40.33,-47.61,-32.24,-48.64,-50.64,-51.01
2021/09/21 01:13:12+0000,-40.66,-47.08,-32.92,-49.20,-50.41,-51.36
2021/09/21 01:14:04+0000,-40.87,-48.76,-32.97,-50.31,-50.40,-51.50
2021/09/21 01:14:56+0000,-40.77,-47.07,-32.84,-48.69,-50.75,-51.25
2021/09/21 01:15:48+0000,-39.97,-46.84,-32.93,-50.55,-50.59,-51.35
2021/09/21 01:16:40+0000,-40.53,-46.24,-32.53,-48.91,-50.96,-50.85
2021/09/21 01:17:32+0000,-40.75,-46.40,-33.15,-49.01,-50.74,-51.02
2021/09/21 01:18:24+0000,-39.46,-46.77,-32.91,-48.69,-50.73,-51.40
2021/09/21 01:19:16+0000,-39.43,-47.19,-32.66,-49.53,-50.56,-51.11
2021/09/21 01:20:08+0000,-39.57,-47.21,-33.24,-49.75,-50.19,-51.36
2021/09/21 01:21:08+0000,-40.18,-47.11,-32.90,-49.94,-50.23,-51.36
2021/09/21 01:22:00+0000,-40.60,-48.07,-33.27,-48.61,-50.10,-51.22
2021/09/21 01:22:52+0000,-40.92,-48.78,-32.68,-48.51,-50.31,-51.52
2021/09/21 01:23:44+0000,-40.93,-46.39,-33.52,-49.92,-50.32,-51.41
2021/09/21 01:24:36+0000,-40.40,-48.95,-33.19,-49.62,-49.94,-50.99
2021/09/21 01:25:28+0000,-40.90,-46.21,-33.47,-48.66,-50.78,-51.09
2021/09/21 01:26:20+0000,-39.75,-48.47,-33.49,-48.51,-50.53,-51.38
2021/09/21 01:27:12+0000,-39.77,-47.61,-33.08,-49.60,-50.40,-50.61
2021/09/21 01:28:04+0000,-40.13,-46.37,-32.92,-49.83,-50.97,-51.52
2021/09/21 01:28:56+0000,-39.88,-45.91,-32.21,-48.85,-50.60,-51.89
2021/09/21 01:29:48+0000,-39.18,-47.49,-33.06,-50.14,-50.44,-51.70
2021/09/21 01:30:40+0000,-38.67,-47.47,-33.11,-49.41,-50.57,-51.40
2021/09/21 01:31:43+0000,-39.31,-47.04,-33.20,-49.29,-50.99,-51.42
2021/09/21 01:32:35+0000,-39.98,-46.08,-34.07,-50.55,-50.85,-51.20
2021/09/21 01:33:27+0000,-38.90,-45.35,-33.05,-48.58,-50.64,-51.05
2021/09/21 01:34:19+0000,-38.80,-47.88,-33.87,-50.11,-50.64,-51.21
2021/09/21 01:35:11+0000,-39.69,-47.52,-33.81,-49.96,-50.36,-51.46
2021/09/21 01:36:03+0000,-38.69,-47.03,-33.27,-50.75,-49.99,-51.38
2021/09/21 01:36:55+0000,-39.41,-45.06,-33.20,-48.56,-50.72,-50.99
2021/09/21 01:37:47+0000,-39.58,-46.61,-33.04,-50.24,-50.37,-50.88
2021/09/21 01:38:39+0000,-40.37,-47.13,-33.08,-49.51,-50.68,-51.47
2021/09/21 01:39:31+0000,-40.20,-46.72,-32.97,-49.33,-50.36,-51.22
2021/09/21 01:40:23+0000,-40.25,-47.21,-33.40,-49.36,-50.37,-51.02
2021/09/21 01:41:24+0000,-39.57,-47.12,-34.43,-49.16,-50.52,-51.11
2021/09/21 01:42:16+0000,-40.41,-47.09,-33.61,-50.11,-50.85,-51.02
2021/09/21 01:43:08+0000,-39.77,-48.63,-34.29,-49.26,-50.42,-51.35
2021/09/21 01:44:00+0000,-40.38,-47.15,-33.11,-49.97,-50.53,-51.45
2021/09/21 01:44:52+0000,-39.79,-48.55,-33.69,-49.27,-50.57,-51.65
2021/09/21 01:45:44+0000,-39.83,-47.44,-34.40,-49.80,-50.57,-50.89
2021/09/21 01:46:36+0000,-39.76,-48.92,-33.50,-49.83,-50.02,-51.53
2021/09/21 01:47:28+0000,-40.04,-47.23,-33.15,-49.33,-50.70,-51.55
2021/09/21 01:48:20+0000,-39.95,-47.81,-33.11,-50.27,-50.98,-51.19
2021/09/21 01:49:12+0000,-39.80,-48.18,-32.67,-50.08,-50.77,-51.88
2021/09/21 01:50:04+0000,-40.29,-46.50,-33.30,-50.02,-50.51,-51.04
2021/09/21 01:51:04+0000,-39.68,-47.46,-33.29,-49.83,-50.67,-51.00
2021/09/21 01:51:56+0000,-39.83,-47.21,-33.63,-50.42,-51.17,-51.37
2021/09/21 01:52:48+0000,-39.82,-47.19,-33.15,-49.25,-50.71,-51.41
2021/09/21 01:53:40+0000,-39.87,-47.50,-32.99,-48.56,-51.08,-51.28
2021/09/21 01:54:32+0000,-40.61,-47.52,-33.83,-49.88,-50.44,-51.19
2021/09/21 01:55:24+0000,-40.14,-46.87,-33.75,-49.93,-50.91,-51.09
2021/09/21 01:56:16+0000,-39.64,-46.27,-33.25,-47.98,-50.44,-51.39
2021/09/21 01:57:08+0000,-39.63,-48.87,-33.19,-49.70,-50.37,-51.21
2021/09/21 01:58:00+0000,-39.94,-45.26,-33.90,-49.29,-50.46,-50.08
2021/09/21 01:58:53+0000,-40.52,-49.08,-33.45,-49.34,-51.05,-51.19
2021/09/21 01:59:45+0000,-38.76,-46.58,-33.60,-48.23,-50.19,-50.74
2021/09/21 02:00:37+0000,-37.76,-49.11,-33.70,-49.73,-50.75,-50.79
2021/09/21 02:01:37+0000,-39.20,-45.30,-33.76,-49.72,-50.55,-50.68
2021/09/21 02:02:29+0000,-39.65,-46.64,-32.71,-48.33,-50.53,-51.17
2021/09/21 02:03:21+0000,-39.32,-48.53,-32.76,-48.38,-50.96,-51.14
2021/09/21 02:04:13+0000,-38.59,-47.08,-33.19,-50.13,-50.70,-51.47
2021/09/21 02:05:05+0000,-38.35,-48.76,-32.74,-49.60,-51.05,-51.40
2021/09/21 02:05:57+0000,-39.41,-47.13,-33.24,-49.06,-50.89,-50.97
2021/09/21 02:06:49+0000,-39.30,-48.00,-33.14,-49.72,-50.77,-51.33
2021/09/21 02:07:41+0000,-39.30,-47.69,-32.80,-49.32,-50.37,-51.07
2021/09/21 02:08:34+0000,-38.39,-47.03,-32.87,-49.47,-50.50,-51.04
2021/09/21 02:09:26+0000,-39.25,-46.43,-33.27,-49.28,-50.16,-50.84
2021/09/21 02:10:18+0000,-38.97,-47.30,-33.46,-50.48,-49.85,-50.87
2021/09/21 02:11:16+0000,-39.47,-47.12,-33.24,-49.66,-50.69,-51.11
2021/09/21 02:12:08+0000,-37.96,-47.39,-32.70,-49.80,-50.78,-50.42
2021/09/21 02:13:00+0000,-40.04,-47.30,-33.58,-49.00,-50.71,-51.03
2021/09/21 02:13:52+0000,-39.08,-47.90,-33.22,-49.14,-50.04,-51.41
2021/09/21 02:14:44+0000,-39.36,-45.34,-34.33,-49.88,-50.59,-50.89
2021/09/21 02:15:36+0000,-39.11,-48.32,-33.45,-49.43,-50.30,-51.01
2021/09/21 02:16:28+0000,-39.49,-46.96,-32.95,-49.77,-50.38,-50.59
2021/09/21 02:17:20+0000,-39.27,-48.95,-32.95,-49.33,-50.44,-50.70
2021/09/21 02:18:12+0000,-39.34,-47.19,-33.09,-49.71,-50.98,-51.27
2021/09/21 02:19:04+0000,-39.09,-47.65,-32.94,-50.36,-50.74,-50.84
2021/09/21 02:19:57+0000,-37.70,-46.55,-33.63,-48.39,-50.77,-51.29
2021/09/21 02:20:49+0000,-37.86,-47.00,-33.79,-50.08,-50.54,-50.63
2021/09/21 02:21:47+0000,-37.35,-46.13,-33.19,-48.76,-50.15,-51.39
2021/09/21 02:22:39+0000,-37.75,-46.44,-33.10,-50.11,-50.94,-50.71
2021/09/21 02:23:31+0000,-38.04,-47.12,-33.72,-48.70,-50.85,-51.24
2021/09/21 02:24:23+0000,-37.72,-47.24,-33.37,-49.40,-50.30,-50.82
2021/09/21 02:25:15+0000,-38.20,-46.93,-33.36,-49.38,-50.70,-51.12
2021/09/21 02:26:07+0000,-38.33,-46.84,-32.59,-48.49,-50.88,-51.05
2021/09/21 02:26:59+0000,-38.55,-46.36,-33.65,-48.81,-50.57,-51.06
2021/09/21 02:27:51+0000,-38.24,-48.05,-32.73,-49.06,-50.73,-50.52
2021/09/21 02:28:43+0000,-38.01,-45.95,-33.70,-50.10,-50.38,-51.54
2021/09/21 02:29:35+0000,-38.30,-49.03,-33.72,-50.08,-51.32,-51.42
2021/09/21 02:30:27+0000,-35.25,-47.71,-33.72,-48.77,-50.47,-50.85
2021/09/21 02:31:27+0000,-36.32,-47.59,-33.71,-48.79,-51.14,-50.86
2021/09/21 02:32:19+0000,-37.75,-46.43,-33.56,-50.03,-50.66,-51.35
2021/09/21 02:33:11+0000,-37.57,-45.38,-33.77,-49.25,-50.29,-51.07
2021/09/21 02:34:03+0000,-39.23,-46.52,-33.10,-50.32,-50.42,-51.32
2021/09/21 02:34:55+0000,-36.59,-46.08,-33.42,-49.38,-50.31,-51.30
2021/09/21 02:35:47+0000,-36.06,-47.11,-33.42,-49.62,-51.23,-50.89
2021/09/21 02:36:39+0000,-37.93,-45.96,-33.66,-50.23,-50.65,-50.91
2021/09/21 02:37:31+0000,-37.33,-46.77,-33.20,-49.45,-50.60,-50.78
2021/09/21 02:38:23+0000,-36.95,-47.46,-32.93,-49.55,-50.75,-51.28
2021/09/21 02:39:15+0000,-37.73,-46.53,-33.53,-50.21,-50.59,-51.33
2021/09/21 02:40:08+0000,-36.29,-47.23,-33.79,-50.23,-50.23,-51.04
2021/09/21 02:41:07+0000,-37.39,-48.15,-33.23,-49.66,-50.79,-51.10
2021/09/21 02:41:59+0000,-38.80,-46.10,-32.74,-49.23,-50.85,-51.00
2021/09/21 02:42:51+0000,-31.90,-49.57,-32.92,-49.52,-50.66,-51.23
2021/09/21 02:43:43+0000,-37.27,-46.32,-32.50,-49.79,-50.73,-50.59
2021/09/21 02:44:35+0000,-36.92,-48.70,-33.21,-50.07,-49.92,-51.55
2021/09/21 02:45:27+0000,-33.86,-45.48,-33.42,-48.61,-50.86,-50.93
2021/09/21 02:46:19+0000,-38.01,-45.73,-32.71,-49.73,-50.81,-51.15
2021/09/21 02:47:11+0000,-38.19,-46.23,-33.51,-50.04,-51.38,-51.38
2021/09/21 02:48:03+0000,-38.25,-46.82,-33.26,-50.46,-50.84,-50.41
2021/09/21 02:48:55+0000,-36.78,-46.19,-33.08,-49.35,-50.43,-51.50
2021/09/21 02:49:47+0000,-36.01,-46.97,-33.99,-49.83,-51.12,-50.96
2021/09/21 02:50:39+0000,-36.01,-46.35,-32.93,-49.49,-50.99,-50.04
2021/09/21 02:51:40+0000,-37.94,-47.30,-32.68,-50.00,-50.82,-50.71
2021/09/21 02:52:32+0000,-36.62,-46.29,-32.83,-48.72,-50.89,-51.62
2021/09/21 02:53:24+0000,-35.95,-46.68,-33.23,-49.44,-51.26,-50.91
2021/09/21 02:54:16+0000,-37.51,-46.47,-33.46,-49.96,-50.80,-50.81
2021/09/21 02:55:08+0000,-34.12,-46.43,-33.36,-49.82,-50.32,-51.24
2021/09/21 02:56:00+0000,-35.74,-47.06,-33.06,-49.15,-49.99,-51.26
2021/09/21 02:56:52+0000,-36.40,-48.71,-32.93,-49.05,-50.76,-51.02
2021/09/21 02:57:44+0000,-36.78,-46.36,-33.22,-49.55,-50.59,-50.94
2021/09/21 02:58:36+0000,-36.44,-48.42,-33.40,-49.62,-50.95,-50.18
2021/09/21 02:59:28+0000,-36.04,-46.85,-33.43,-49.26,-50.58,-50.46
2021/09/21 03:00:20+0000,-34.64,-48.70,-33.28,-49.44,-50.60,-50.99
2021/09/21 03:01:21+0000,-35.64,-48.58,-33.17,-49.28,-51.28,-51.20
2021/09/21 03:02:13+0000,-36.96,-45.61,-33.51,-49.76,-50.53,-51.31
2021/09/21 03:03:05+0000,-37.32,-48.25,-33.66,-49.61,-50.37,-50.90
2021/09/21 03:03:57+0000,-36.51,-46.73,-32.64,-49.37,-50.97,-51.22
2021/09/21 03:04:49+0000,-36.14,-48.75,-32.24,-48.89,-50.83,-50.72
2021/09/21 03:05:41+0000,-36.53,-46.85,-33.13,-49.63,-50.90,-51.91
2021/09/21 03:06:34+0000,-36.56,-46.05,-32.61,-49.91,-50.73,-52.03
2021/09/21 03:07:26+0000,-34.43,-45.70,-32.95,-49.15,-50.68,-50.99
2021/09/21 03:08:18+0000,-35.00,-47.16,-32.88,-50.10,-51.13,-50.90
2021/09/21 03:09:10+0000,-36.67,-46.56,-33.79,-49.54,-50.41,-51.19
2021/09/21 03:10:02+0000,-36.58,-46.56,-33.35,-49.28,-50.64,-51.62
2021/09/21 03:11:02+0000,-37.27,-46.78,-32.63,-50.02,-50.68,-51.05
2021/09/21 03:11:55+0000,-34.85,-46.81,-33.70,-49.52,-50.52,-50.95
2021/09/21 03:12:47+0000,-35.81,-46.70,-32.27,-49.64,-50.87,-51.05
2021/09/21 03:13:39+0000,-37.09,-46.96,-32.87,-49.89,-50.52,-51.36
2021/09/21 03:14:31+0000,-37.79,-45.20,-33.15,-49.34,-50.75,-50.81
2021/09/21 03:15:23+0000,-33.52,-46.55,-33.34,-49.09,-50.69,-50.69
2021/09/21 03:16:15+0000,-37.76,-46.24,-32.84,-49.72,-50.45,-51.23
2021/09/21 03:17:07+0000,-36.01,-46.26,-33.60,-50.34,-50.31,-51.21
2021/09/21 03:17:59+0000,-37.78,-45.89,-33.40,-49.77,-50.69,-50.95
2021/09/21 03:18:51+0000,-37.39,-47.79,-33.03,-50.09,-51.69,-51.11
2021/09/21 03:19:43+0000,-31.33,-47.59,-33.30,-50.01,-50.83,-51.01
2021/09/21 03:20:35+0000,-32.51,-48.34,-33.98,-50.35,-50.79,-50.53
2021/09/21 03:21:35+0000,-35.67,-48.31,-33.02,-49.88,-51.23,-50.94
2021/09/21 03:22:27+0000,-33.32,-47.57,-33.46,-49.38,-50.49,-51.25
2021/09/21 03:23:19+0000,-35.87,-44.23,-33.76,-49.93,-50.98,-51.15
2021/09/21 03:24:11+0000,-33.01,-43.64,-33.79,-49.55,-51.16,-51.09
2021/09/21 03:25:03+0000,-34.55,-44.81,-33.25,-50.40,-50.72,-50.81
2021/09/21 03:25:55+0000,-36.20,-47.33,-33.91,-49.48,-50.81,-51.00
2021/09/21 03:26:47+0000,-37.05,-46.78,-33.66,-49.16,-50.46,-51.22
2021/09/21 03:27:39+0000,-34.09,-47.67,-33.10,-49.61,-51.00,-50.96
2021/09/21 03:28:31+0000,-34.49,-47.18,-33.66,-49.19,-50.90,-50.92
2021/09/21 03:29:23+0000,-37.09,-47.31,-33.85,-49.32,-50.70,-50.96
2021/09/21 03:30:16+0000,-37.91,-47.94,-33.76,-49.94,-50.00,-50.56
2021/09/21 03:31:16+0000,-38.26,-47.59,-33.49,-49.63,-50.63,-51.21
2021/09/21 03:32:08+0000,-34.89,-48.06,-33.54,-49.74,-50.55,-51.22
2021/09/21 03:33:00+0000,-36.92,-47.29,-32.84,-49.98,-51.33,-51.20
2021/09/21 03:33:52+0000,-34.30,-48.38,-33.18,-49.29,-51.20,-51.12
2021/09/21 03:34:44+0000,-37.11,-48.48,-33.79,-49.96,-50.42,-50.95
2021/09/21 03:35:36+0000,-35.26,-47.98,-33.76,-50.36,-51.15,-51.07
2021/09/21 03:36:28+0000,-34.11,-46.12,-33.16,-48.45,-50.45,-50.89
2021/09/21 03:37:20+0000,-36.50,-48.94,-33.92,-49.22,-50.43,-50.70
2021/09/21 03:38:12+0000,-36.14,-47.39,-33.70,-49.15,-50.54,-51.42
2021/09/21 03:39:04+0000,-35.05,-45.70,-33.79,-49.61,-50.58,-50.73
2021/09/21 03:39:57+0000,-36.28,-46.63,-33.18,-48.95,-50.43,-51.17
2021/09/21 03:40:49+0000,-35.35,-47.52,-33.31,-49.51,-51.25,-51.33
2021/09/21 03:41:49+0000,-34.97,-47.23,-33.38,-50.22,-51.04,-51.39
2021/09/21 03:42:41+0000,-34.73,-47.61,-33.78,-49.87,-51.16,-50.85
2021/09/21 03:43:33+0000,-34.91,-45.51,-33.33,-49.91,-50.43,-51.66
2021/09/21 03:44:25+0000,-36.44,-45.90,-33.50,-50.67,-50.26,-50.91
2021/09/21 03:45:17+0000,-36.37,-47.10,-33.31,-49.23,-50.94,-51.75
2021/09/21 03:46:09+0000,-36.93,-46.37,-33.23,-49.80,-50.86,-51.58
2021/09/21 03:47:01+0000,-36.65,-46.04,-33.35,-49.46,-50.54,-51.17
2021/09/21 03:47:53+0000,-36.54,-45.66,-33.81,-49.69,-50.28,-51.45
2021/09/21 03:48:45+0000,-36.84,-46.45,-33.82,-49.38,-50.39,-51.62
2021/09/21 03:49:37+0000,-36.37,-47.72,-33.72,-49.71,-50.88,-51.22
2021/09/21 03:50:29+0000,-38.69,-45.57,-33.43,-49.58,-51.19,-51.33
2021/09/21 03:51:29+0000,-35.75,-46.16,-33.36,-49.72,-50.89,-51.45
2021/09/21 03:52:21+0000,-34.81,-48.72,-33.03,-49.66,-50.83,-51.02
2021/09/21 03:53:13+0000,-33.99,-47.65,-32.78,-50.35,-50.63,-51.80
2021/09/21 03:54:05+0000,-36.81,-46.63,-33.21,-49.94,-50.46,-50.83
2021/09/21 03:54:57+0000,-37.05,-45.95,-33.23,-49.10,-50.55,-51.80
2021/09/21 03:55:49+0000,-35.67,-46.90,-33.15,-49.82,-50.30,-51.41
2021/09/21 03:56:41+0000,-33.59,-47.70,-32.41,-49.99,-50.57,-50.70
2021/09/21 03:57:33+0000,-35.01,-46.54,-33.11,-49.98,-51.31,-50.87
2021/09/21 03:58:25+0000,-37.59,-46.55,-33.43,-49.18,-51.07,-51.71
2021/09/21 03:59:17+0000,-37.87,-47.24,-33.21,-50.40,-51.03,-51.20
2021/09/21 04:00:10+0000,-36.08,-46.99,-33.36,-49.16,-50.76,-51.43
2021/09/21 04:01:10+0000,-34.80,-48.02,-33.30,-49.91,-50.64,-51.47
2021/09/21 04:02:02+0000,-35.23,-46.00,-33.48,-49.66,-50.70,-51.82
2021/09/21 04:02:54+0000,-37.35,-46.02,-33.95,-49.34,-50.65,-51.55
2021/09/21 04:03:46+0000,-37.83,-48.84,-34.11,-50.00,-50.53,-51.51
2021/09/21 04:04:38+0000,-38.40,-45.35,-32.96,-49.59,-50.80,-51.63
2021/09/21 04:05:30+0000,-38.74,-45.66,-33.06,-49.29,-50.47,-51.52
2021/09/21 04:06:22+0000,-37.70,-42.26,-33.13,-49.03,-51.07,-51.38
2021/09/21 04:07:14+0000,-37.94,-46.57,-32.92,-50.48,-50.87,-51.27
2021/09/21 04:08:07+0000,-35.64,-47.21,-32.44,-50.06,-50.64,-50.84
2021/09/21 04:08:59+0000,-37.88,-42.87,-31.80,-50.43,-50.67,-51.11
2021/09/21 04:09:51+0000,-36.82,-46.67,-32.98,-49.18,-51.71,-51.00
2021/09/21 04:10:43+0000,-37.75,-45.23,-33.32,-49.48,-51.06,-51.58
2021/09/21 04:11:43+0000,-37.39,-45.91,-33.15,-50.04,-50.58,-51.41
2021/09/21 04:12:35+0000,-35.16,-45.02,-33.36,-49.97,-50.91,-51.36
2021/09/21 04:13:27+0000,-37.47,-44.64,-33.89,-49.21,-50.61,-51.58
2021/09/21 04:14:19+0000,-36.83,-44.95,-33.89,-49.14,-50.59,-51.31
2021/09/21 04:15:11+0000,-35.72,-45.26,-33.58,-49.88,-50.57,-51.56
2021/09/21 04:16:03+0000,-34.25,-45.09,-33.28,-49.30,-50.80,-51.62
2021/09/21 04:16:55+0000,-36.94,-45.23,-33.49,-49.03,-50.92,-51.39
2021/09/21 04:17:47+0000,-37.37,-44.46,-33.71,-49.49,-50.38,-51.27
2021/09/21 04:18:39+0000,-36.36,-44.20,-33.27,-49.68,-50.89,-50.90
2021/09/21 04:19:31+0000,-36.48,-45.02,-33.25,-49.10,-51.20,-51.39
2021/09/21 04:20:23+0000,-37.64,-45.38,-32.95,-49.50,-50.52,-50.94
2021/09/21 04:21:24+0000,-37.45,-44.71,-33.26,-49.66,-50.70,-51.16
2021/09/21 04:22:16+0000,-36.22,-44.84,-32.93,-49.40,-50.66,-50.54
2021/09/21 04:23:08+0000,-37.10,-43.79,-33.36,-49.73,-49.87,-51.08
2021/09/21 04:24:00+0000,-38.99,-44.73,-32.96,-49.35,-50.26,-51.03
2021/09/21 04:24:52+0000,-38.46,-45.49,-33.26,-49.21,-50.05,-50.81
2021/09/21 04:25:44+0000,-39.80,-44.21,-32.93,-50.01,-50.27,-51.61
2021/09/21 04:26:36+0000,-39.07,-45.46,-33.82,-49.73,-50.10,-51.43
2021/09/21 04:27:28+0000,-39.80,-45.41,-33.78,-49.94,-51.16,-50.59
2021/09/21 04:28:20+0000,-39.40,-45.46,-33.36,-49.17,-49.99,-51.82
2021/09/21 04:29:12+0000,-37.98,-45.15,-33.04,-49.92,-50.59,-50.94
2021/09/21 04:30:04+0000,-37.86,-43.61,-33.23,-49.81,-50.35,-51.75
2021/09/21 04:31:04+0000,-38.35,-43.48,-33.65,-49.77,-50.63,-51.31
2021/09/21 04:31:56+0000,-37.94,-44.13,-33.41,-49.76,-50.73,-51.48
2021/09/21 04:32:48+0000,-39.29,-44.80,-33.16,-50.15,-50.21,-50.83
2021/09/21 04:33:40+0000,-39.24,-45.81,-33.90,-49.87,-50.20,-50.97
2021/09/21 04:34:32+0000,-37.91,-45.12,-33.51,-50.29,-50.76,-51.08
2021/09/21 04:35:25+0000,-37.28,-44.62,-33.44,-49.30,-51.02,-51.12
2021/09/21 04:36:17+0000,-37.33,-45.48,-33.94,-50.64,-51.10,-51.59
2021/09/21 04:37:09+0000,-38.19,-45.07,-33.45,-50.14,-50.49,-51.20
2021/09/21 04:38:01+0000,-38.46,-44.20,-32.63,-50.89,-51.67,-51.20
2021/09/21 04:38:53+0000,-38.97,-43.61,-31.80,-50.40,-51.29,-50.95
2021/09/21 04:39:45+0000,-39.82,-43.56,-32.26,-50.75,-50.93,-50.67
2021/09/21 04:40:37+0000,-38.27,-46.33,-32.74,-50.58,-51.30,-51.61
2021/09/21 04:41:37+0000,-38.78,-46.32,-32.53,-50.37,-51.34,-50.94
2021/09/21 04:42:29+0000,-38.57,-42.50,-32.29,-50.98,-51.40,-51.63
2021/09/21 04:43:21+0000,-40.24,-46.15,-32.85,-50.43,-51.15,-51.14
2021/09/21 04:44:13+0000,-39.22,-44.57,-33.05,-50.57,-51.20,-52.22
2021/09/21 04:45:05+0000,-39.49,-44.96,-32.71,-51.44,-51.25,-51.40
2021/09/21 04:45:57+0000,-39.07,-45.30,-33.42,-51.05,-50.98,-51.78
2021/09/21 04:46:49+0000,-37.47,-47.09,-32.99,-51.00,-51.62,-51.18
2021/09/21 04:47:41+0000,-38.25,-45.86,-33.01,-50.24,-51.17,-51.13
2021/09/21 04:48:33+0000,-40.22,-44.90,-33.05,-50.50,-50.93,-51.32
2021/09/21 04:49:25+0000,-40.10,-44.14,-33.44,-50.70,-51.18,-51.43
2021/09/21 04:50:17+0000,-39.75,-44.39,-33.39,-51.22,-51.32,-51.78
2021/09/21 04:51:18+0000,-37.18,-44.37,-32.63,-50.83,-51.01,-51.30
2021/09/21 04:52:10+0000,-39.77,-44.22,-33.57,-50.03,-51.41,-51.87
2021/09/21 04:53:02+0000,-39.48,-44.82,-33.27,-50.32,-50.77,-51.72